Regional Weather Roundup
Issued by NWS Little Rock, AR

Home | Current Version | Previous Version | Graphics & Text | Print | Product List | Glossary On
Versions: 1 2 3 4 5 6 7 8 9 10 11 12 13 14 15 16 17 18 19 20 21 22 23 24 25 26
000
ASUS44 KLZK 291005
RWRLZK

WEATHER ROUNDUP FOR ARKANSAS
NATIONAL WEATHER SERVICE LITTLE ROCK AR
500 AM CDT FRI APR 29 2016

NOTE: "FAIR" INDICATES FEW OR NO CLOUDS BELOW 12,000 FEET WITH NO
SIGNIFICANT WEATHER AND/OR OBSTRUCTIONS TO VISIBILITY.

ARZ001-003-010-029-291100-
NORTHWEST ARKANSAS

CITY           SKY/WX    TMP DP  RH WIND       PRES   REMARKS
FAYETTEVILLE   CLOUDY    57  50  77 NE3       29.87F
FORT SMITH     CLOUDY    65  50  58 E14       29.80F
HARRISON       PTCLDY    54  46  74 N3        29.94F
BENTONVILLE    CLOUDY    61  43  51 NE8       29.90F
ROGERS         CLOUDY    60  45  57 E12       29.90F
SILOAM SPGS    CLOUDY    61  43  51 E8        29.87F
HIGHFILL       CLOUDY    58  48  69 NE8       29.88F
$$

ARZ004-005-016-291100-
NORTH CENTRAL ARKANSAS

CITY           SKY/WX    TMP DP  RH WIND       PRES   REMARKS
BATESVILLE     CLEAR     54  50  87 CALM      29.93F
FLIPPIN        CLOUDY   N/A N/A N/A NE5       29.92S
MTN HOME       CLOUDY    56  46  69 NE6       29.93F
$$

ARZ040-041-291100-
WEST CENTRAL ARKANSAS

CITY           SKY/WX    TMP DP  RH WIND       PRES   REMARKS
MENA           CLOUDY    63  59  88 E3        29.82F
MOUNT IDA      CLOUDY    67  54  63 VRB5      29.81S
$$

ARZ009-017-025-026-028-291100-
NORTHEAST ARKANSAS

CITY           SKY/WX    TMP DP  RH WIND       PRES   REMARKS
CORNING          N/A     59  52  77 NE14      29.98F
JONESBORO      CLEAR     56  51  84 NE6       29.94F
NEWPORT        CLEAR     59  58  96 NE7       29.94F
WALNUT RIDGE   CLOUDY    59  48  67 NE13      29.95F
BLYTHEVILLE    CLOUDY    58  53  84 NE5       29.97S
$$

ARZ022-023-033-042-044-291100-
CENTRAL ARKANSAS

CITY           SKY/WX    TMP DP  RH WIND       PRES   REMARKS
LITTLE ROCK    CLOUDY    66  53  63 E6        29.88F
N LITTLE ROCK    N/A     66  53  63 E10G21    29.86S
JACKSONVILLE   CLOUDY    64  53  68 E6        29.89S
SEARCY         CLOUDY    61  55  82 NE9       29.90F
HOT SPRINGS    CLOUDY    69  53  56 E9        29.85F
RUSSELLVILLE   PTCLDY    66  51  58 E8        29.86F
$$

ARZ036-291100-
EAST ARKANSAS

CITY           SKY/WX    TMP DP  RH WIND       PRES   REMARKS
WEST MEMPHIS   CLOUDY    60  54  80 CALM      29.95R
$$

ARZ050-053-066-070-073-291100-
SOUTHWEST ARKANSAS

CITY           SKY/WX    TMP DP  RH WIND       PRES   REMARKS
ARKADELPHIA    FAIR      67  63  87 NE3       29.84S
CAMDEN         CLOUDY    68  57  68 CALM      29.82F
TEXARKANA      CLOUDY    70  65  84 SE7       29.76F
EL DORADO      PTCLDY    69  66  90 SE10      29.82F
DE QUEEN       CLOUDY    66  64  93 E8        29.74F THUNDER
$$

ARZ056-057-069-291100-
SOUTHEAST ARKANSAS

CITY           SKY/WX    TMP DP  RH WIND       PRES   REMARKS
PINE BLUFF     MOCLDY    66  56  70 E10       29.85F
STUTTGART      CLOUDY    66  52  59 MISG      29.90F
MONTICELLO     CLOUDY    66  60  81 E3        29.86F

$$






USA.gov is the U.S. government's official web portal to all federal, state and local government web resources and services.